#timestamp,LO_Frequency,Hit,StdDev 
1583334675.8,286046999.7,P
1583334695.6,286047000.0,N
1583334715.4,286047000.7,P
1583334735.3,286046998.3,Y
1583334755.1,286046998.7,P
1583334775.8,286047000.5,N
1583334795.7,286046999.7,N
1583334815.5,286047004.0,Y
1583334835.4,286047003.6,P
1583334855.2,286047001.3,N
1583334875.0,286047001.8,N
1583334875.9,286047001.8,N
1583334895.8,286047001.3,N
1583334915.6,286047003.5,Y
1583334935.5,286047002.6,P
1583334955.3,286047002.2,P
1583334975.1,286047004.0,P
1583334995.9,286047003.9,Y
1583335015.7,286047000.1,P
1583335035.5,286047002.6,N
1583335055.4,286047004.4,P
1583335075.2,286047004.1,N
1583335095.1,286047003.5,N
1583335096.0,286047003.5,N
1583335115.8,286047004.0,N
1583335135.6,286047003.4,N
1583335155.5,286047005.5,Y
1583335175.3,286047004.1,P
1583335195.1,286047003.5,P
1583335215.9,286047003.7,P
1583335235.7,286047004.0,Y
1583335255.6,286047001.2,P
1583335275.4,286047000.3,N
1583335295.2,286046998.1,N
1583335315.1,286046998.1,N
1583335316.0,286046998.1,N
1583335335.8,286047000.9,N
1583335355.7,286047000.1,N
1583335375.5,286047001.7,N
1583335395.3,286047001.3,N
1583335415.2,286047003.9,N
1583335435.0,286046999.8,N
1583335435.9,286046999.8,N
1583335455.7,286047000.1,N
1583335475.6,286047002.5,N
1583335495.4,286047002.0,N
1583335515.3,286047001.9,N
1583335535.1,286047003.9,N
1583335536.0,286047003.9,N
1583335555.8,286047003.5,N
1583335575.7,286047003.4,N
1583335595.5,286047003.9,N
1583335615.4,286047005.6,N
1583335635.2,286047005.2,N
1583335655.0,286047005.0,N
1583335655.9,286047005.0,N
1583335675.8,286047007.6,Y
1583335695.6,286047005.5,P
1583335715.4,286047007.6,P
1583335735.3,286047008.9,P
1583335755.1,286047008.3,Y
1583335775.9,286047004.4,P
1583335795.7,286047005.6,P
1583335815.5,286047007.5,P
1583335835.4,286047006.8,Y
1583335855.2,286047000.9,P
1583335875.1,286047001.1,N
1583335876.0,286047001.1,N
1583335895.8,286047000.5,N
1583335915.6,286046999.7,N
1583335935.5,286046999.8,N
1583335955.3,286047002.0,N
1583335975.1,286047002.2,N
1583335995.9,286047004.3,N
1583336015.7,286047005.9,Y
1583336035.6,286047003.6,P
1583336055.4,286047003.6,P
1583336075.2,286047003.4,P
1583336095.1,286047005.4,Y
1583336096.0,286047005.4,P
1583336115.8,286047002.4,N
1583336135.7,286047002.1,N
1583336155.5,286047001.5,N
1583336175.3,286047001.4,N
1583336195.2,286047003.5,N
1583336215.0,286047003.0,N
1583336215.9,286047003.0,N
1583336235.7,286047005.8,Y
1583336255.6,286047001.6,P
1583336275.4,286047002.5,P
1583336295.3,286047002.8,P
1583336315.1,286047002.0,Y
1583336335.8,286047001.2,P
1583336355.7,286046999.7,N
1583336375.5,286047001.7,N
1583336395.4,286047004.3,Y
1583336415.2,286047000.1,P
1583336435.0,286047000.9,N
1583336435.9,286047000.9,N
1583336455.8,286046998.2,Y
1583336475.6,286046999.0,P
1583336495.4,286046998.8,N
1583336515.3,286046998.5,N
1583336535.1,286047001.2,N
1583336555.9,286046998.1,N
1583336575.7,286047000.8,N
1583336595.5,286047000.0,N
1583336615.4,286047001.5,N
1583336635.2,286047003.4,N
1583336655.1,286047005.2,Y
1583336656.0,286047005.2,P
1583336675.8,286047004.9,N
1583336695.6,286047004.6,N
1583336715.5,286047005.1,N
1583336735.3,286047004.5,N
1583336755.1,286047007.0,Y
1583336775.9,286047003.9,P
1583336795.7,286047005.6,P
1583336815.6,286047004.8,P
1583336835.4,286047007.6,Y
1583336855.2,286047001.6,P
1583336875.1,286047002.5,N
1583336876.0,286047002.5,N
1583336895.8,286047004.0,Y
1583336915.7,286047002.7,P
1583336935.5,286047004.3,P
1583336955.3,286047005.9,P
1583336975.2,286047005.1,Y
1583336995.0,286046999.9,P
1583336995.9,286046999.9,N
1583337015.7,286047002.2,N
1583337035.6,286047002.0,N
1583337055.4,286047004.2,N
1583337075.3,286047003.0,N
1583337095.1,286047004.2,N
1583337096.0,286047004.2,N
1583337115.8,286047002.2,N
1583337135.7,286047001.6,N
1583337155.5,286047001.3,N
1583337175.3,286047001.7,N
1583337195.2,286047001.5,N
1583337215.0,286047001.4,N
1583337215.9,286047001.4,N
1583337235.8,286047001.5,N
1583337255.6,286047001.8,N
1583337275.4,286047001.6,N
1583337295.3,286047001.8,N
1583337315.1,286047001.7,N
1583337335.8,286047005.9,Y
1583337355.7,286047001.5,P
1583337375